When you browse on this site, cookies collect data to enhance your experience and personalize the content and advertising you see.
Visit our Privacy Policy to learn more. By continuing to use the site, you agree to this use of cookies and data.
  • In United Kingdom
  • List of Countries
  • For 7 days
  • Water Temperature
  • Satellite Maps
  • Weather Map
  • Weather Widgets
  • user-avatar
    Login

    Hourly Weather Abernethy

    Today, 15 December, Saturday

    Time Temperature Precipitation Wind Pressure Humidity
    00:00 -2°C° 0 mm 6 mps 748 mmHg 75%
    01:00 -2°C° 0 mm 6 mps 747 mmHg 75%
    02:00 -2°C° 0 mm 7 mps 747 mmHg 74%
    03:00 -2°C° 0 mm 8 mps 746 mmHg 74%
    04:00 -2°C° 0.1 mm 8 mps 746 mmHg 74%
    05:00 -2°C° 0.1 mm 8 mps 745 mmHg 74%
    06:00 -1°C° 0 mm 5 mps 744 mmHg 75%
    07:00 -2°C° 0 mm 6 mps 744 mmHg 74%
    08:00 -2°C° 0 mm 7 mps 743 mmHg 73%
    09:00 -2°C° 0 mm 8 mps 743 mmHg 72%
    10:00 -3°C° 0 mm 9 mps 742 mmHg 71%
    11:00 -3°C° 0 mm 9 mps 741 mmHg 71%
    12:00 -1°C° 0 mm 8 mps 739 mmHg 69%
    13:00 -1°C° 0.3 mm 9 mps 738 mmHg 73%
    14:00 -2°C° 0.3 mm 10 mps 736 mmHg 78%
    15:00 -2°C° 0.3 mm 11 mps 735 mmHg 82%
    16:00 -2°C° 3.4 mm 11 mps 734 mmHg 86%
    17:00 -2°C° 3.4 mm 11 mps 732 mmHg 89%
    18:00 -2°C° 3.4 mm 11 mps 731 mmHg 92%
    19:00 -2°C° 3.5 mm 10 mps 730 mmHg 93%
    20:00 -2°C° 3.5 mm 10 mps 729 mmHg 93%
    21:00 -2°C° 3.5 mm 10 mps 728 mmHg 94%
    22:00 0°C° 0.6 mm 9 mps 727 mmHg 95%
    23:00 0°C° 0.6 mm 8 mps 727 mmHg 96%

    Tomorrow, 16 December, Sunday

    Time Temperature Precipitation Wind Pressure Humidity
    00:00 0°C° 0.6 mm 8 mps 726 mmHg 96%
    01:00 0°C° 1 mm 7 mps 727 mmHg 96%
    02:00 0°C° 1 mm 7 mps 728 mmHg 95%
    03:00 0°C° 1 mm 7 mps 728 mmHg 94%
    04:00 0°C° 0.2 mm 7 mps 729 mmHg 92%
    05:00 0°C° 0.2 mm 7 mps 730 mmHg 91%
    06:00 +1°C° 0.2 mm 6 mps 731 mmHg 89%
    07:00 +1°C° 0 mm 6 mps 732 mmHg 90%
    08:00 +1°C° 0 mm 6 mps 733 mmHg 90%
    09:00 0°C° 0 mm 5 mps 734 mmHg 90%
    10:00 +1°C° 0 mm 5 mps 734 mmHg 91%
    11:00 +1°C° 0 mm 5 mps 735 mmHg 92%
    12:00 +1°C° 0 mm 5 mps 736 mmHg 93%
    13:00 +1°C° 0 mm 4 mps 736 mmHg 93%
    14:00 +1°C° 0 mm 4 mps 736 mmHg 93%
    15:00 +2°C° 0 mm 3 mps 737 mmHg 93%
    16:00 +1°C° 0 mm 3 mps 737 mmHg 93%
    17:00 +1°C° 0 mm 3 mps 737 mmHg 94%
    18:00 +1°C° 0 mm 3 mps 737 mmHg 94%
    19:00 +1°C° 0 mm 3 mps 738 mmHg 94%
    20:00 +1°C° 0 mm 3 mps 738 mmHg 94%
    21:00 0°C° 0 mm 3 mps 739 mmHg 94%
    22:00 0°C° 0 mm 3 mps 739 mmHg 94%
    23:00 0°C° 0 mm 3 mps 739 mmHg 94%

    Day after tomorrow, 17 December, Monday

    Time Temperature Precipitation Wind Pressure Humidity
    00:00 0°C° 0 mm 3 mps 739 mmHg 95%
    01:00 0°C° 0 mm 3 mps 740 mmHg 95%
    02:00 +1°C° 0 mm 3 mps 740 mmHg 95%
    03:00 +1°C° 0 mm 3 mps 741 mmHg 95%
    04:00 0°C° 0 mm 3 mps 741 mmHg 95%
    05:00 0°C° 0 mm 3 mps 741 mmHg 95%
    06:00 0°C° 0 mm 3 mps 742 mmHg 95%
    07:00 0°C° 0 mm 3 mps 742 mmHg 95%
    08:00 0°C° 0 mm 3 mps 742 mmHg 95%
    09:00 0°C° 0 mm 3 mps 743 mmHg 94%
    10:00 +1°C° 0 mm 3 mps 743 mmHg 94%
    11:00 +1°C° 0 mm 3 mps 743 mmHg 94%
    12:00 +2°C° 0 mm 3 mps 743 mmHg 93%
    13:00 +1°C° 0.1 mm 4 mps 742 mmHg 94%
    14:00 +3°C° 0.1 mm 4 mps 742 mmHg 95%
    15:00 +2°C° 0.1 mm 5 mps 741 mmHg 96%
    16:00 +3°C° 0.4 mm 6 mps 741 mmHg 96%
    17:00 +3°C° 0.4 mm 6 mps 740 mmHg 95%
    18:00 +3°C° 0.4 mm 7 mps 740 mmHg 95%
    19:00 +4°C° 0.2 mm 7 mps 740 mmHg 95%
    20:00 +4°C° 0.2 mm 7 mps 739 mmHg 95%
    21:00 +4°C° 0.2 mm 6 mps 739 mmHg 95%
    22:00 +5°C° 0.2 mm 7 mps 739 mmHg 95%
    23:00 +5°C° 0.2 mm 7 mps 738 mmHg 94%

    18 December, Tuesday

    Time Temperature Precipitation Wind Pressure Humidity
    00:00 +5°C° 0.2 mm 7 mps 738 mmHg 94%
    01:00 +5°C° 0.2 mm 7 mps 738 mmHg 93%
    02:00 +6°C° 0.2 mm 8 mps 737 mmHg 93%
    03:00 +6°C° 0.2 mm 8 mps 736 mmHg 93%
    04:00 +6°C° 0.3 mm 8 mps 736 mmHg 92%
    05:00 +6°C° 0.3 mm 8 mps 735 mmHg 91%
    06:00 +6°C° 0.3 mm 8 mps 735 mmHg 90%
    07:00 +6°C° 0.7 mm 9 mps 735 mmHg 90%
    08:00 +6°C° 0.7 mm 9 mps 734 mmHg 89%
    09:00 +6°C° 0.7 mm 10 mps 734 mmHg 88%
    10:00 +6°C° 1.1 mm 10 mps 733 mmHg 87%
    11:00 +6°C° 1.1 mm 10 mps 733 mmHg 87%
    12:00 +6°C° 1.1 mm 10 mps 733 mmHg 86%
    13:00 +5°C° 1.4 mm 9 mps 732 mmHg 87%
    14:00 +5°C° 1.4 mm 9 mps 731 mmHg 88%
    15:00 +5°C° 1.4 mm 9 mps 731 mmHg 88%
    16:00 +5°C° 1.3 mm 8 mps 730 mmHg 89%
    17:00 +5°C° 1.3 mm 8 mps 730 mmHg 89%
    18:00 +5°C° 1.3 mm 8 mps 730 mmHg 89%
    19:00 +5°C° 0.3 mm 7 mps 730 mmHg 90%
    20:00 +4°C° 0.3 mm 6 mps 731 mmHg 91%
    21:00 +5°C° 0.3 mm 5 mps 731 mmHg 93%
    22:00 +4°C° 0.2 mm 4 mps 731 mmHg 92%
    23:00 +4°C° 0.2 mm 4 mps 731 mmHg 91%

    19 December, Wednesday

    Time Temperature Precipitation Wind Pressure Humidity
    00:00 +4°C° 0.2 mm 4 mps 731 mmHg 90%
    01:00 +4°C° 0.2 mm 4 mps 732 mmHg 91%
    02:00 +3°C° 0.2 mm 4 mps 732 mmHg 91%
    03:00 +3°C° 0.2 mm 4 mps 733 mmHg 92%
    04:00 +3°C° 0 mm 4 mps 733 mmHg 92%
    05:00 +3°C° 0 mm 4 mps 734 mmHg 91%
    06:00 +3°C° 0 mm 4 mps 734 mmHg 91%
    07:00 +1°C° 0 mm 4 mps 735 mmHg 91%
    08:00 +1°C° 0 mm 5 mps 735 mmHg 90%
    09:00 +1°C° 0 mm 5 mps 736 mmHg 89%
    10:00 +1°C° 0.1 mm 5 mps 736 mmHg 87%
    11:00 +2°C° 0.1 mm 6 mps 736 mmHg 85%
    12:00 +3°C° 0.1 mm 6 mps 736 mmHg 83%
    13:00 +3°C° 0.1 mm 6 mps 736 mmHg 84%
    14:00 +3°C° 0.1 mm 5 mps 736 mmHg 86%
    15:00 +3°C° 0.1 mm 5 mps 737 mmHg 87%
    16:00 +3°C° 0 mm 5 mps 737 mmHg 88%
    17:00 +2°C° 0 mm 5 mps 737 mmHg 89%
    18:00 +2°C° 0 mm 5 mps 737 mmHg 90%
    19:00 +2°C° 0 mm 5 mps 736 mmHg 89%
    20:00 +2°C° 0 mm 5 mps 736 mmHg 89%
    21:00 +2°C° 0 mm 6 mps 736 mmHg 88%
    22:00 +2°C° 0.2 mm 6 mps 736 mmHg 88%
    23:00 +3°C° 0.2 mm 6 mps 736 mmHg 88%

    20 December, Thursday

    Time Temperature Precipitation Wind Pressure Humidity
    00:00 +3°C° 0.2 mm 7 mps 736 mmHg 88%
    01:00 +3°C° 0.1 mm 6 mps 736 mmHg 89%
    02:00 +3°C° 0.1 mm 6 mps 736 mmHg 90%
    03:00 +3°C° 0.1 mm 5 mps 736 mmHg 92%
    04:00 +3°C° 0 mm 5 mps 737 mmHg 92%
    05:00 +3°C° 0 mm 5 mps 737 mmHg 92%
    06:00 +3°C° 0 mm 5 mps 737 mmHg 92%
    07:00 +3°C° 0 mm 5 mps 737 mmHg 92%
    08:00 +3°C° 0 mm 5 mps 738 mmHg 92%
    09:00 +3°C° 0 mm 5 mps 738 mmHg 92%
    10:00 +3°C° 0 mm 5 mps 738 mmHg 90%
    11:00 +4°C° 0 mm 6 mps 739 mmHg 89%
    12:00 +4°C° 0 mm 6 mps 739 mmHg 88%
    13:00 +4°C° 0 mm 6 mps 739 mmHg 87%
    14:00 +5°C° 0 mm 5 mps 740 mmHg 87%
    15:00 +3°C° 0 mm 5 mps 740 mmHg 87%
    16:00 +3°C° 0 mm 5 mps 740 mmHg 89%
    17:00 +3°C° 0 mm 5 mps 740 mmHg 90%
    18:00 +3°C° 0 mm 5 mps 740 mmHg 91%
    19:00 +2°C° 0 mm 5 mps 739 mmHg 92%
    20:00 +3°C° 0 mm 4 mps 739 mmHg 92%
    21:00 +3°C° 0 mm 4 mps 739 mmHg 93%
    22:00 +3°C° 0.2 mm 4 mps 737 mmHg 93%
    23:00 +2°C° 0.2 mm 5 mps 736 mmHg 93%
    Show more